| time (UTC) | temp F | wind direction | speed MPH | gust MPH | rain 1hr in | rain 24hr in | rain mn in | humidity % | barometer mb |
| 20260504234025 | 80 | 174 | 0.0 | 4.0 | 0.00 | 0.00 | 0.00 | 45 | 999.2 |
| 20260504232524 | 81 | 188 | 0.0 | 2.0 | 0.00 | 0.00 | 0.00 | 44 | 999.3 |
| 20260504231023 | 82 | 148 | 0.0 | 6.0 | 0.00 | 0.00 | 0.00 | 43 | 999.2 |
| 20260504225522 | 83 | 150 | 0.0 | 6.0 | 0.00 | 0.00 | 0.00 | 42 | 999.1 |
| 20260504224021 | 84 | 210 | 0.0 | 1.0 | 0.00 | 0.00 | 0.00 | 42 | 999.1 |
| 20260504222520 | 85 | 134 | 7.0 | 7.0 | 0.00 | 0.00 | 0.00 | 41 | 999.0 |
| 20260504221019 | 85 | 134 | 4.0 | 11.0 | 0.00 | 0.00 | 0.00 | 39 | 999.1 |
| 20260504214017 | 87 | 150 | 0.0 | 7.0 | 0.00 | 0.00 | 0.00 | 36 | 999.3 |
| 20260504212516 | 87 | 116 | 2.0 | 6.0 | 0.00 | 0.00 | 0.00 | 33 | 999.6 |
| 20260504205514 | 88 | 196 | 0.0 | 6.0 | 0.00 | 0.00 | 0.00 | 32 | 999.8 |
| 20260504204013 | 88 | 160 | 0.0 | 1.0 | 0.00 | 0.00 | 0.00 | 32 | 1000.0 |
| 20260504202512 | 88 | 196 | 0.0 | 0.0 | 0.00 | 0.00 | 0.00 | 33 | 1000.2 |
| 20260504201011 | 87 | 230 | 0.0 | 0.0 | 0.00 | 0.00 | 0.00 | 33 | 1000.4 |
| 20260504195511 | 88 | 126 | 1.0 | 2.0 | 0.00 | 0.00 | 0.00 | 33 | 1000.7 |
| 20260504194009 | 87 | 131 | 0.0 | 2.0 | 0.00 | 0.00 | 0.00 | 34 | 1001.0 |
| 20260504192509 | 87 | 148 | 0.0 | 1.0 | 0.00 | 0.00 | 0.00 | 34 | 1001.1 |
| 20260504185507 | 86 | 132 | 0.0 | 0.0 | 0.00 | 0.00 | 0.00 | 37 | 1001.6 |
| 20260504184006 | 84 | 129 | 0.0 | 0.0 | 0.00 | 0.00 | 0.00 | 38 | 1001.7 |
| 20260504182504 | 84 | 212 | 0.0 | 0.0 | 0.00 | 0.00 | 0.00 | 37 | 1002.0 |
| 20260504181004 | 82 | 136 | 0.0 | 2.0 | 0.00 | 0.00 | 0.00 | 39 | 1002.1 |
| 20260504175503 | 82 | 233 | 0.0 | 1.0 | 0.00 | 0.00 | 0.00 | 39 | 1002.3 |
| 20260504174002 | 81 | 253 | 0.0 | 2.0 | 0.00 | 0.00 | 0.00 | 40 | 1002.6 |
| 20260504172501 | 80 | 222 | 0.0 | 1.0 | 0.00 | 0.00 | 0.00 | 42 | 1002.5 |
| 20260504171000 | 78 | 221 | 0.0 | 1.0 | 0.00 | 0.00 | 0.00 | 44 | 1002.6 |
| 20260504150952 | 71 | 250 | 1.0 | 1.0 | 0.00 | 0.00 | 0.00 | 53 | 1002.8 |
| 20260504140948 | 66 | 242 | 0.0 | 1.0 | 0.00 | 0.00 | 0.00 | 58 | 1003.0 |
| 20260504043912 | 70 | 226 | 0.0 | 8.0 | 0.00 | 0.00 | 0.00 | 41 | 1006.4 |
| 20260504042411 | 71 | 222 | 0.0 | 6.0 | 0.00 | 0.00 | 0.00 | 39 | 1006.3 |
| 20260504035409 | 70 | 229 | 0.0 | 6.0 | 0.00 | 0.00 | 0.00 | 38 | 1006.5 |
| 20260504033908 | 69 | 141 | 1.0 | 5.0 | 0.00 | 0.00 | 0.00 | 39 | 1006.6 |
| 20260504032407 | 69 | 260 | 0.0 | 5.0 | 0.00 | 0.00 | 0.00 | 38 | 1006.6 |
| 20260504030906 | 70 | 132 | 0.0 | 1.0 | 0.00 | 0.00 | 0.00 | 37 | 1006.5 |
| 20260504025405 | 71 | 145 | 0.0 | 1.0 | 0.00 | 0.00 | 0.00 | 37 | 1006.4 |
| 20260504022403 | 72 | 165 | 0.0 | 3.0 | 0.00 | 0.00 | 0.00 | 36 | 1006.4 |
| 20260504020902 | 72 | 151 | 0.0 | 3.0 | 0.00 | 0.00 | 0.00 | 34 | 1006.4 |
| 20260504013900 | 74 | 150 | 0.0 | 3.0 | 0.00 | 0.00 | 0.00 | 33 | 1006.4 |
| 20260504012359 | 75 | 160 | 0.0 | 0.0 | 0.00 | 0.00 | 0.00 | 31 | 1006.4 |
| 20260504010859 | 77 | 198 | 0.0 | 0.0 | 0.00 | 0.00 | 0.00 | 30 | 1006.4 |
| 20260504005357 | 78 | 215 | 0.0 | 1.0 | 0.00 | 0.00 | 0.00 | 29 | 1006.6 |
| 20260504003857 | 79 | 196 | 0.0 | 1.0 | 0.00 | 0.00 | 0.00 | 27 | 1006.7 |
| 20260504000854 | 81 | 212 | 0.0 | 1.0 | 0.00 | 0.00 | 0.00 | 25 | 1007.0 |
| 20260503235353 | 82 | 248 | 0.0 | 1.0 | 0.00 | 0.00 | 0.00 | 24 | 1007.2 |